Regional Weather Roundup
Issued by NWS

Home | Current Version | Previous Version | Text Only | Print | Product List | Glossary Off
Versions: 1 2 3 4 5 6 7 8 9 10 11 12 13 14 15 16 17 18 19 20 21 22 23 24 25 26 27 28 29 30 31 32 33 34 35 36 37 38 39 40 41 42 43 44 45 46 47 48 49 50

000
ASUS43 KMKX 130059
RWRWI

WISCONSIN REGIONAL WEATHER ROUNDUP
NATIONAL WEATHER SERVICE MILWAUKEE/SULLIVAN WI
700 PM CST TUE DEC 12 2017

NOTE: "FAIR" INDICATES FEW OR NO CLOUDS BELOW 12,000 FEET WITH NO
SIGNIFICANT WEATHER AND/OR OBSTRUCTIONS TO VISIBILITY.

WIZ001-002-006>008-014>016-023>028-130200-
NORTHWEST WISCONSIN

CITY           SKY/WX    TMP DP  RH WIND       PRES   REMARKS
SUPERIOR ARPT  MIX PCPN  14  10  82 S5        29.90F WCI   6
ASHLAND        LGT SNOW  13   5  70 S5        29.91S WCI   5
HAYWARD        LGT SNOW  12   6  77 S7        29.87F WCI   1
SIREN          CLOUDY    14   9  80 S7        29.88F WCI   4
CUMBERLAND     LGT SNOW  12   9  85 S8        29.86F WCI   1
RICE LAKE      LGT SNOW  13   9  81 CALM      29.91F
CHETEK         CLOUDY    13   7  77 S5        29.90F WCI   5
LADYSMITH      LGT SNOW  14   5  68 S6        29.91F WCI   5
EAU CLAIRE     LGT SNOW  15   9  76 S6        29.91F WCI   6
MENOMONIE      CLOUDY    17  10  74 E5        29.91F WCI   9
NEW RICHMOND   CLOUDY    17  10  74 SE7       29.88F WCI   7
OSCEOLA        CLOUDY    17  11  77 SE7       29.90F WCI   8
$$

WIZ003>005-009-010-017-018-130200-
NORTH CENTRAL WISCONSIN

CITY           SKY/WX    TMP DP  RH WIND       PRES   REMARKS
MANITOWISH WTR CLOUDY     9   2  75 S3        29.84F
ARBOR VITAE    CLOUDY    11   3  69 CALM      29.84F
WOODRUFF       CLOUDY    11   3  69 CALM      29.84F
RHINELANDER    CLOUDY    11   1  64 SW3       29.86F
EAGLE RIVER    CLOUDY     5   0  80 CALM      29.85F
LAND O LAKES   CLOUDY     2  -1  87 CALM      29.86F
PHILLIPS       FLURRIES  10   0  63 SW5       29.86F WCI   2
TOMAHAWK       CLOUDY    11   0  61 CALM      29.89S
MEDFORD        CLOUDY    11   0  59 SW3       29.88F
MERRILL        CLOUDY    13   0  55 W5        29.90F WCI   5
$$

WIZ029-030-035-036-043>047-130200-
CENTRAL WISCONSIN

CITY           SKY/WX    TMP DP  RH WIND       PRES   REMARKS
WAUSAU         CLOUDY    12   1  61 SW3       29.90F
MOSINEE        CLOUDY    12   1  62 SW3       29.93F
MARSHFIELD     CLOUDY    14   2  58 W7        29.90F WCI   4
STEVENS POINT  CLOUDY    12  -1  55 W5        29.95F WCI   4
WAUPACA        CLOUDY    16   4  59 CALM      29.96F
WAUTOMA        CLOUDY    14   3  61 CALM      29.98F
WISC RAPIDS    CLOUDY    15   1  53 W5        29.95F WCI   8
CAMP DOUGLAS   FLURRIES  18   1  49 S3        29.95F
$$

WIZ011>013-019>022-031-037>040-048>050-130200-
NORTHEAST WISCONSIN

CITY           SKY/WX    TMP DP  RH WIND       PRES   REMARKS
ANTIGO         CLOUDY    11   1  62 W3        29.88F
SHAWANO        CLOUDY    17   3  55 W8        29.95F WCI   6
OCONTO         CLEAR      5   0  78 CALM      29.97S
STURGEON BAY   MOCLDY    15   4  61 NW8       29.96S WCI   4
GREEN BAY      CLOUDY    15   3  59 W7        29.96F WCI   5
MANITOWOC      CLEAR     10   5  80 W5        29.98S WCI   2
APPLETON       CLOUDY    14   0  52 W7        29.93F WCI   4
CLINTONVILLE   CLOUDY    14   1  57 W7        29.95F WCI   4
OSHKOSH        CLOUDY    14   2  58 W3        29.96F
$$

WIZ032>034-041-042-053>061-130200-
SOUTHWEST WISCONSIN

CITY           SKY/WX    TMP DP  RH WIND       PRES   REMARKS
LA CROSSE      CLOUDY    22   9  57 SE7       29.95F WCI  13
SPARTA         CLOUDY    18   6  59 CALM      29.97F
VIROQUA        CLOUDY    18   8  67 S5        29.94F WCI  11
BOSCOBEL       CLOUDY    23   7  50 S3        30.00F
PRAIRIE DU CHI CLOUDY    24   8  49 S3        30.00F
PLATTEVILLE    CLOUDY    22  10  60 CALM      30.00S
$$

WIZ056-057-062-063-064-067-068-130200-
SOUTH CENTRAL WISCONSIN

CITY           SKY/WX    TMP DP  RH WIND       PRES   REMARKS
REEDSBURG      CLOUDY    18   1  48 W7        29.96F WCI   9
BARABOO/DELLS  CLOUDY    18   1  48 W3        29.96F
LONE ROCK      CLOUDY    20   7  57 CALM      30.00F
MINERAL POINT  CLOUDY    23   7  50 SW5       29.96F WCI  17
MADISON        CLOUDY    18   3  52 CALM      29.97F
MIDDLETON      CLOUDY    20   4  49 CALM      29.99S
WATERTOWN      MOCLDY    14   2  59 CALM      29.98F
MONROE         CLOUDY    21   3  45 SW5       29.97F WCI  15
JANESVILLE     CLOUDY    30   1  29 CALM      29.99F
$$

WIZ051-052-058>065-066-070>072-130200-
SOUTHEAST WISCONSIN

CITY           SKY/WX    TMP DP  RH WIND       PRES   REMARKS
MILWAUKEE      MOCLDY    19   3  49 W8        29.98F WCI   9
WAUKESHA       CLOUDY    16   1  53 W7        29.98F WCI   6
MILWAUKEE/TIMM CLOUDY    16   0  48 W8        29.99F WCI   5
RACINE         CLOUDY    16   4  59 CALM      30.00F
BURLINGTON       N/A    N/A N/A N/A MISG        N/A
KENOSHA        CLOUDY    16   3  56 W6        29.98F WCI   7
FOND DU LAC    CLOUDY    15   1  53 CALM      29.97F
SHEBOYGAN      CLOUDY    14   5  67 W5        29.97S WCI   6
WEST BEND      CLOUDY    16   1  53 W7        29.96F WCI   6
JUNEAU         CLOUDY    12   1  63 CALM      29.98F
$$

LSZ147-162-130200-
LAKE SUPERIOR

STATION/POSITION TIME  TEMP    WIND        PRES    WAVE
                       AIR SEA DIR/SP/G            HT/PER
                 (UTC) (F)     (DEG/KT/KT) (MB)    (FT/S)
DEVILS ISLAND    0000   16     180/  6/  7 1014.1F
SAXON HARBOR     0040   14                 1012.9S
$$

LMZ867-665-643>646-130200-
LAKE MICHIGAN

STATION/POSITION TIME  TEMP    WIND        PRES    WAVE
                       AIR SEA DIR/SP/G            HT/PER
                 (UTC) (F)     (DEG/KT/KT) (MB)    (FT/S)
NORTHPORT PIER   0040   18     330/ 10/ 15 1014.2F
KEWAUNEE LAKESHO 0030   14     290/  2/  3 1014.0F
SHEBOYGAN LAKESH 0000   17     280/  6/  7 1016.6R
PORT WASHINGTON  0040   17     290/  5/ 13 1016.3F
MILWAUKEE LAKESH 0030   19     290/  8/ 10   N/A
KENOSHA   LAKESH 0000   18     300/  7/ 11 1016.3
$$

TC  - TEMPERATURE IN CELSIUS
VSB - VISIBILITY IN STATUTE MILES
WCI - WIND CHILL INDEX
HX  - HEAT INDEX





USA.gov is the U.S. government's official web portal to all federal, state and local government web resources and services.